Temperature
19 19 18 18 18 18 18 18 18 18 18 18 18 18 18 18 18 18 18 18 18 18 18 18 18 18 18 18 18 18 18 18 18 18 18 18 18 18 17 17 17 17 17
18 18 18 18 18 18 18 17 17 17 17 17 17 18 18 18 17 18 18 18 18 18 18 18 18 18 18 18 18 18 18 18 18 18 18 18 18 18 17 17 17 17 17
18 18 18 18 18 17 17 17 17 17 17 17 17 17 17 17 17 17 17 18 18 18 18 18 18 18 18 18 18 18 18 18 18 18 18 18 18 18 18 17 17 17 17
18 18 18 18 17 17 17 17 17 17 17 17 17 17 17 17 17 17 17 17 17 17 18 18 18 17 18 18 18 18 18 18 18 18 18 18 18 18 18 18 17 17 17
19 18 18 18 17 17 17 17 17 17 16 16 16 17 17 17 17 17 17 17 17 17 17 18 18 17 17 17 18 18 18 18 18 18 18 18 18 18 18 18 18 18 17
19 18 18 17 17 17 17 16 16 16 16 16 16 16 17 17 17 17 17 17 17 17 18 18 18 18 17 17 17 17 18 18 18 18 18 18 18 18 18 18 18 18 18
19 18 18 17 17 17 16 16 16 16 16 16 16 16 17 17 17 17 17 17 17 17 17 17 18 18 18 18 17 17 17 17 17 17 17 18 18 18 18 18 18 18 18
19 18 18 18 17 17 17 16 16 16 16 16 15 15 16 17 17 17 17 17 17 17 17 17 17 17 18 18 18 18 17 17 17 17 17 17 17 17 18 18 18 18 18
19 18 18 18 18 17 17 17 16 16 16 15 15 15 14 14 15 17 17 17 17 17 17 17 18 18 18 18 17 18 18 17 17 17 17 17 17 17 17 17 18 18 18
18 18 18 18 18 18 17 17 16 16 16 15 15 15 14 14 14 14 16 17 16 17 17 17 17 18 18 18 17 17 18 17 17 17 17 17 17 17 17 17 17 17 17
18 18 18 18 18 18 17 17 17 16 16 15 15 15 14 14 14 14 14 16 17 17 16 17 17 18 18 18 17 17 17 17 17 17 17 17 16 16 17 17 17 17 17
17 17 17 17 17 17 17 17 17 16 16 16 15 15 14 14 14 13 13 14 15 17 16 16 17 17 17 17 17 17 17 17 17 17 17 16 16 16 16 16 17 17 17
16 16 16 16 17 17 17 17 17 16 16 16 15 15 14 14 14 14 13 14 14 15 16 16 16 16 17 17 17 17 17 17 17 17 17 16 16 16 16 16 16 16 16
14 15 15 16 16 16 16 16 16 16 16 16 15 15 15 14 14 14 13 13 13 14 15 15 15 16 16 16 17 17 17 16 16 16 16 16 16 16 16 16 16 16 16
13 13 14 14 15 15 15 15 16 16 15 15 15 15 15 14 14 14 14 13 13 13 13 14 15 15 15 15 16 16 16 16 16 16 16 15 15 15 15 15 15 15 15
12 12 12 13 13 14 14 14 15 15 15 15 15 15 14 14 14 14 14 14 13 13 13 14 14 14 14 14 15 15 15 15 15 15 15 15 15 15 15 15 15 15 15
11 11 11 11 12 12 13 13 14 14 14 14 14 14 14 14 14 14 14 14 13 13 13 13 13 13 13 14 13 14 14 14 14 14 14 14 14 14 14 14 14 14 14
10 10 10 10 11 11 12 12 12 13 13 14 14 14 14 14 14 14 14 14 14 13 13 13 13 13 13 13 13 13 13 13 13 13 13 13 13 13 13 13 13 13 13
10 10 10 10 10 10 11 11 11 12 13 13 13 13 13 13 14 14 14 14 14 14 13 13 13 13 13 13 12 12 12 12 12 12 12 12 12 13 13 13 13 13 13
10 10 9 9 9 10 10 10 10 11 12 12 13 13 13 13 13 13 14 14 14 13 13 13 13 13 12 12 12 12 11 11 12 12 12 12 12 12 12 12 12 12 12
9 9 9 9 9 9 9 9 10 10 11 11 12 12 13 13 13 13 13 14 14 13 13 13 13 12 12 12 12 11 11 11 11 11 11 11 11 11 11 11 11 11 11
9 9 9 9 9 9 9 9 9 9 10 10 11 12 12 13 13 13 13 14 13 13 13 13 13 12 12 12 12 11 11 11 10 10 11 11 11 11 11 11 11 11 11
8 9 9 9 9 9 9 9 9 9 9 10 10 11 12 12 13 13 13 13 13 13 13 13 13 13 12 12 12 11 11 11 11 10 11 10 10 10 10 10 10 9 9
8 8 8 8 9 9 9 9 9 9 9 9 10 10 11 12 12 12 13 13 13 13 12 12 13 13 13 12 12 12 11 11 11 10 10 10 9 9 9 9 9 8 8
7 7 8 8 8 8 9 9 9 9 9 9 9 10 10 11 11 12 12 12 12 12 12 12 12 12 12 11 11 11 11 11 10 9 10 10 9 9 9 8 8 8 8
7 7 7 7 8 8 8 8 8 9 9 9 9 9 10 10 11 11 12 12 12 11 11 11 11 11 11 11 11 11 11 11 10 9 9 10 9 9 8 8 8 8 8
Wind_Speed
7 6 5 4 5 6 4 5 5 7 8 7 9 8 7 8 9 11 12 16 18 19 19 21 22 23 24 23 23 23 23 24 24 25 25 25 24 24 23 23 22 22 22
6 5 5 4 3 4 4 4 5 6 6 6 7 8 7 7 8 11 12 14 18 20 21 23 23 24 26 25 24 24 24 24 24 25 26 26 26 25 25 24 24 24 23
6 5 4 4 3 4 4 3 3 3 4 5 7 7 7 7 8 10 12 12 14 19 24 24 25 26 27 26 25 24 25 25 25 25 26 26 26 26 26 25 25 25 25
8 5 4 3 2 2 1 2 2 2 3 3 4 5 6 6 8 8 9 11 12 14 19 24 27 29 29 27 26 26 26 25 26 26 26 26 26 26 26 26 26 26 26
8 5 4 2 2 2 1 1 1 2 1 2 3 5 5 5 7 8 8 9 11 13 15 19 25 28 29 29 28 27 26 26 26 26 26 26 27 27 26 26 27 27 27
8 6 5 4 3 3 2 1 1 1 2 2 3 4 4 5 5 6 8 7 8 12 15 16 17 19 26 28 28 27 26 26 27 27 27 27 27 27 26 26 26 27 27
8 7 5 4 4 3 2 2 2 1 1 1 1 3 4 5 5 5 5 5 7 8 10 12 13 14 15 22 26 26 27 27 26 27 28 28 28 27 26 26 26 26 27
7 7 7 5 5 3 1 1 2 1 1 1 2 1 4 5 4 2 2 2 4 4 6 8 10 12 13 12 15 21 24 24 25 26 26 28 28 27 26 25 25 25 26
7 7 8 6 5 4 3 2 2 3 2 2 2 3 1 2 4 4 2 2 2 4 5 5 6 9 13 12 13 15 18 19 22 24 24 24 25 25 24 24 24 24 25
7 8 9 8 7 5 4 3 3 3 3 2 1 2 3 4 2 4 4 2 3 4 5 5 5 4 7 9 12 14 15 16 18 18 20 20 21 21 20 21 22 23 23
4 6 8 8 8 6 6 5 4 4 3 4 3 3 2 3 4 4 5 5 4 3 4 5 4 3 4 6 9 12 14 13 13 14 15 15 17 18 17 18 20 21 22
3 3 5 7 8 7 7 6 6 5 5 4 4 4 4 3 4 4 5 5 5 5 5 4 3 2 2 4 7 11 11 10 9 9 9 9 10 10 10 11 13 16 18
4 5 4 6 7 7 8 7 6 6 6 5 6 5 5 5 4 4 4 4 4 4 3 2 2 0 1 3 4 9 9 10 11 10 10 8 7 6 5 4 4 5 8
5 6 6 4 6 8 8 7 6 6 6 6 7 6 5 5 5 5 4 3 3 3 2 3 2 1 2 3 6 9 9 12 14 15 14 14 13 12 11 10 8 7 5
6 8 8 6 5 6 7 7 6 7 6 7 7 7 5 5 5 5 5 5 4 3 3 3 0 1 3 5 7 8 9 13 16 17 17 17 16 15 14 14 13 13 12
5 7 8 8 7 7 6 7 6 7 7 7 6 7 6 5 5 5 5 5 5 5 4 3 2 2 4 6 9 10 12 16 17 18 18 17 17 16 16 15 15 15 15
6 6 6 7 8 8 7 6 7 7 8 8 7 7 8 6 5 4 4 4 5 5 6 3 2 3 5 9 8 10 11 11 13 17 18 18 18 17 17 17 16 16 16
7 7 6 7 7 8 8 7 8 8 8 8 8 8 8 6 6 5 4 5 5 5 5 5 3 4 5 11 10 10 8 10 12 16 18 18 18 18 18 17 17 17 17
9 8 7 7 8 8 8 8 8 8 8 8 8 9 9 8 7 5 5 5 5 5 5 5 4 4 5 10 11 10 11 9 11 15 17 17 18 18 18 18 18 19 19
10 10 9 9 8 8 8 8 8 8 7 7 8 9 9 9 9 7 6 6 5 5 6 7 7 8 8 9 10 11 10 8 8 10 12 14 17 18 18 19 19 20 21
12 11 10 10 9 8 8 8 7 7 7 7 7 8 9 11 11 9 7 6 6 6 7 8 9 8 9 11 10 8 11 10 8 6 9 7 8 9 11 16 18 19 20
11 10 11 11 11 10 11 12 9 7 7 8 8 8 8 10 11 11 10 10 10 9 10 9 8 12 11 11 10 12 13 11 6 4 6 6 5 7 5 9 14 17 18
10 10 11 11 12 12 15 15 14 8 8 8 8 7 8 8 10 6 6 5 7 11 12 10 12 12 12 14 14 13 11 7 7 8 7 6 4 5 4 8 12 15 16
8 9 11 11 11 13 16 15 14 9 7 8 7 8 8 8 9 8 6 4 3 4 8 8 10 10 13 12 11 12 11 9 9 7 5 5 3 3 3 4 8 11 13
8 8 8 10 10 12 15 15 13 6 6 7 7 7 7 9 12 13 9 7 7 6 9 13 14 15 17 16 14 12 12 13 11 6 3 4 4 3 2 1 2 6 8
9 9 10 10 10 11 13 15 13 6 6 6 5 5 7 10 14 15 10 10 10 9 11 15 15 16 14 14 13 10 11 13 11 6 4 4 5 4 3 1 1 3 4
Wind_Direction
215 215 218 222 216 207 204 210 216 214 216 220 224 228 232 233 233 231 235 238 239 239 235 232 227 228 229 226 223 220 219 219 216 212 211 211 212 212 214 215 215 214 213
205 208 212 213 214 203 198 197 209 208 213 216 222 222 225 228 235 230 229 235 237 237 235 230 227 230 232 231 227 223 222 221 220 217 215 214 214 214 215 216 217 217 216
188 190 198 211 221 218 202 198 213 202 210 217 226 226 226 225 228 231 230 228 233 235 233 231 231 232 233 233 230 228 225 222 222 220 218 217 217 216 217 217 218 219 219
177 170 181 211 214 200 200 214 222 214 218 222 234 239 235 232 233 232 231 228 227 232 234 234 233 234 235 236 235 232 228 225 223 222 221 220 219 218 218 218 219 220 220
169 154 166 186 162 142 145 187 143 159 193 246 256 251 245 241 242 243 235 230 227 227 231 236 237 236 237 240 239 236 232 228 225 224 223 222 222 220 219 220 220 221 221
162 147 150 153 136 117 102 123 153 165 194 229 273 286 269 256 246 242 243 240 232 232 232 234 237 239 238 239 239 237 235 232 229 227 226 224 224 222 220 220 221 221 222
160 151 145 143 131 129 156 187 173 180 247 206 25 323 302 276 257 249 247 250 249 244 239 234 233 233 238 239 238 238 237 235 234 233 230 228 226 223 220 220 221 222 222
165 158 155 155 150 144 149 210 165 168 241 171 141 21 337 335 337 296 275 261 274 277 261 248 235 230 231 232 235 237 238 238 237 237 236 233 230 227 223 221 221 221 222
175 165 167 163 165 159 184 218 206 181 206 244 180 160 162 274 309 308 288 277 313 307 291 282 253 238 229 226 228 231 233 235 238 239 239 240 241 235 228 223 222 222 223
189 177 174 173 173 172 191 221 203 189 179 219 251 204 191 185 224 301 307 294 306 308 302 301 287 256 230 217 219 221 222 224 228 233 239 240 243 238 231 228 227 225 225
220 199 187 181 179 183 195 207 206 205 195 200 211 220 227 218 209 223 283 307 315 285 289 285 275 259 231 207 209 217 217 216 219 223 228 232 236 235 230 230 231 231 230
303 268 218 196 189 187 194 202 207 212 216 218 220 213 207 212 208 210 247 286 301 297 297 286 281 248 219 186 196 198 194 190 186 187 192 206 220 220 217 226 233 238 238
326 314 273 219 204 197 196 196 204 217 221 224 227 226 223 222 215 213 233 261 277 295 300 312 312 266 153 135 154 162 155 149 147 143 139 143 146 146 153 177 213 234 242
314 324 320 273 229 210 203 198 205 218 223 227 232 229 229 236 225 216 217 231 275 291 294 286 341 43 91 98 113 116 122 131 128 124 121 119 114 109 105 99 93 88 84
321 334 331 323 292 247 222 206 211 219 223 229 234 236 235 239 232 227 219 206 214 248 275 262 209 98 101 99 111 111 114 118 114 113 112 110 109 106 101 96 90 85 80
315 321 325 324 315 291 258 230 222 224 223 231 231 235 238 239 238 233 227 217 208 210 231 240 197 147 132 122 117 112 113 112 110 111 110 110 108 104 101 96 91 86 81
292 300 306 310 310 305 292 265 245 232 227 232 233 231 236 234 235 235 231 224 216 206 225 225 177 145 134 131 122 114 113 108 109 109 111 110 107 104 99 95 91 87 84
272 274 281 289 295 299 300 290 275 259 239 231 230 228 234 233 229 230 228 230 225 210 206 202 171 152 139 140 131 123 117 111 108 108 108 107 105 102 97 93 90 87 85
263 267 266 269 275 281 288 290 285 276 256 240 228 222 226 220 227 227 230 235 233 221 202 185 169 150 139 140 132 121 114 109 106 107 102 101 102 100 97 95 93 91 89
252 257 256 256 260 266 274 280 282 282 273 258 238 226 219 212 218 221 230 234 229 218 196 182 165 154 146 142 135 132 123 115 111 106 100 101 100 97 98 99 99 97 95
251 249 250 253 253 257 262 263 265 276 279 272 257 237 223 215 212 212 221 226 214 207 190 178 166 155 152 152 146 140 132 119 100 109 110 99 94 89 91 99 102 103 100
251 248 246 248 251 255 256 258 261 265 269 267 260 246 228 212 210 214 225 226 213 200 188 176 168 163 159 152 142 144 140 135 121 135 114 101 93 91 82 98 111 110 108
250 250 249 246 246 247 248 254 260 256 258 262 256 242 229 207 191 197 211 215 212 203 189 174 166 162 158 155 149 148 149 137 130 150 125 104 89 88 85 108 120 119 118
241 246 248 245 242 245 242 244 249 249 252 258 257 240 224 198 190 183 177 159 139 153 170 164 156 150 148 147 144 144 137 115 109 127 115 111 107 94 87 96 125 127 126
241 243 243 240 237 242 239 237 236 232 243 256 261 246 222 201 191 177 162 147 128 113 110 119 122 124 127 129 136 136 135 136 139 145 126 111 126 104 90 94 134 137 131
238 244 245 237 233 235 235 231 225 214 233 250 259 246 225 207 188 175 164 155 145 136 130 121 117 118 125 131 137 145 148 149 147 146 162 122 141 132 121 159 171 162 145
Height
1511 1512 1512 1513 1513 1513 1513 1514 1514 1515 1516 1516 1517 1519 1520 1520 1522 1523 1523 1524 1525 1526 1528 1529 1530 1532 1533 1535 1536 1537 1538 1539 1541 1543 1545 1547 1549 1551 1553 1556 1557 1559 1561
1509 1509 1509 1509 1509 1509 1509 1510 1510 1511 1511 1511 1512 1513 1515 1515 1517 1518 1519 1519 1520 1522 1523 1524 1525 1527 1529 1530 1532 1533 1535 1536 1537 1539 1541 1543 1546 1548 1550 1552 1554 1556 1558
1506 1506 1506 1506 1506 1506 1506 1506 1506 1506 1506 1506 1507 1508 1509 1510 1511 1512 1513 1514 1515 1516 1517 1518 1520 1521 1523 1525 1527 1529 1530 1532 1534 1535 1537 1539 1542 1544 1546 1548 1551 1553 1555
1504 1503 1503 1503 1503 1502 1502 1502 1502 1502 1502 1502 1502 1503 1504 1504 1505 1506 1507 1508 1509 1510 1511 1513 1514 1516 1517 1519 1521 1523 1525 1528 1529 1531 1533 1535 1538 1540 1542 1544 1547 1549 1551
1501 1500 1500 1500 1500 1500 1499 1499 1499 1498 1498 1498 1498 1498 1498 1499 1499 1501 1501 1502 1504 1505 1506 1507 1508 1509 1511 1513 1515 1517 1520 1522 1525 1527 1529 1531 1533 1536 1538 1540 1543 1545 1547
1499 1498 1498 1498 1498 1497 1496 1496 1496 1495 1495 1494 1493 1493 1492 1493 1493 1494 1496 1497 1498 1499 1500 1501 1502 1503 1505 1506 1509 1511 1514 1516 1519 1521 1524 1526 1528 1531 1534 1536 1538 1541 1543
1497 1496 1496 1495 1495 1494 1493 1493 1492 1492 1491 1490 1489 1488 1488 1488 1488 1489 1490 1492 1493 1494 1494 1495 1496 1498 1499 1501 1502 1504 1507 1510 1513 1515 1518 1521 1523 1526 1529 1531 1534 1536 1539
1495 1495 1494 1493 1492 1491 1491 1491 1489 1489 1488 1487 1486 1484 1483 1484 1484 1485 1486 1487 1488 1488 1489 1489 1490 1491 1493 1495 1497 1499 1501 1504 1506 1509 1511 1515 1518 1521 1524 1526 1529 1531 1533
1493 1492 1492 1491 1490 1489 1489 1488 1487 1486 1485 1484 1483 1482 1481 1481 1480 1480 1481 1483 1484 1484 1484 1484 1485 1485 1487 1489 1491 1493 1495 1497 1500 1503 1505 1508 1511 1515 1518 1520 1523 1525 1528
1489 1489 1489 1488 1487 1487 1487 1486 1485 1484 1483 1482 1480 1479 1479 1479 1478 1476 1476 1478 1479 1479 1479 1479 1479 1480 1481 1483 1485 1487 1489 1491 1494 1496 1499 1502 1505 1508 1511 1514 1516 1518 1521
1485 1485 1485 1485 1484 1484 1484 1483 1483 1481 1480 1479 1477 1476 1476 1475 1475 1475 1472 1471 1473 1474 1474 1474 1474 1475 1477 1478 1480 1482 1484 1486 1489 1490 1493 1497 1500 1503 1506 1508 1510 1512 1514
1481 1480 1480 1480 1480 1481 1481 1480 1479 1478 1477 1476 1474 1473 1472 1471 1471 1471 1469 1468 1467 1468 1469 1469 1470 1471 1472 1474 1476 1478 1480 1482 1484 1486 1488 1492 1495 1498 1500 1502 1504 1506 1507
1475 1474 1474 1474 1475 1476 1476 1476 1476 1475 1473 1472 1471 1470 1468 1468 1467 1467 1466 1465 1464 1464 1464 1465 1465 1466 1468 1470 1472 1474 1476 1478 1480 1481 1484 1487 1490 1493 1495 1497 1498 1500 1501
1468 1468 1467 1467 1468 1470 1470 1471 1471 1470 1469 1468 1467 1466 1465 1464 1463 1462 1462 1462 1461 1461 1461 1461 1461 1463 1464 1466 1469 1471 1473 1474 1476 1478 1480 1483 1486 1489 1491 1492 1494 1495 1496
1463 1461 1461 1461 1461 1463 1464 1464 1465 1465 1465 1464 1463 1462 1460 1460 1459 1458 1458 1458 1459 1458 1457 1458 1459 1460 1461 1463 1466 1468 1469 1471 1473 1475 1478 1480 1483 1485 1487 1489 1490 1491 1492
1458 1456 1455 1454 1454 1456 1457 1457 1458 1459 1459 1458 1458 1457 1456 1455 1455 1454 1453 1453 1454 1454 1454 1455 1456 1457 1459 1460 1462 1464 1467 1469 1471 1474 1476 1479 1481 1483 1485 1486 1488 1489 1489
1453 1451 1450 1449 1448 1448 1448 1449 1450 1451 1452 1452 1453 1452 1451 1451 1450 1449 1449 1449 1449 1449 1449 1451 1453 1454 1456 1458 1460 1462 1465 1467 1470 1473 1475 1478 1480 1482 1484 1485 1486 1488 1488
1448 1446 1445 1443 1443 1442 1441 1441 1442 1443 1444 1445 1446 1446 1446 1446 1445 1444 1444 1444 1444 1444 1445 1446 1448 1451 1453 1456 1458 1461 1464 1467 1469 1472 1475 1477 1479 1481 1483 1485 1486 1488 1488
1443 1441 1440 1438 1437 1436 1436 1435 1435 1435 1436 1438 1439 1440 1440 1441 1439 1439 1439 1438 1438 1439 1439 1441 1444 1447 1450 1453 1457 1460 1463 1466 1469 1472 1474 1477 1480 1482 1484 1485 1487 1488 1489
1436 1435 1434 1432 1431 1430 1429 1429 1429 1429 1429 1430 1432 1433 1434 1434 1434 1434 1433 1433 1433 1433 1434 1436 1439 1443 1447 1450 1454 1458 1461 1465 1468 1471 1475 1478 1480 1483 1485 1487 1488 1490 1490
1428 1428 1427 1426 1425 1424 1423 1423 1423 1423 1423 1423 1424 1425 1427 1428 1428 1428 1428 1427 1427 1427 1429 1431 1434 1438 1443 1447 1451 1456 1459 1464 1468 1472 1475 1479 1482 1484 1486 1489 1490 1492 1492
1420 1420 1419 1419 1419 1418 1418 1418 1417 1417 1417 1417 1417 1418 1420 1421 1422 1422 1422 1422 1422 1422 1423 1426 1429 1433 1438 1443 1448 1453 1457 1461 1467 1473 1476 1480 1484 1486 1489 1490 1492 1493 1494
1412 1411 1411 1411 1411 1411 1412 1412 1412 1411 1411 1411 1411 1411 1412 1414 1415 1416 1417 1417 1417 1417 1419 1421 1425 1429 1434 1439 1444 1451 1456 1460 1464 1471 1476 1480 1485 1488 1490 1492 1493 1494 1495
1404 1403 1403 1403 1403 1404 1405 1406 1406 1405 1405 1405 1404 1405 1406 1407 1409 1411 1412 1412 1412 1413 1415 1419 1423 1427 1432 1438 1444 1449 1455 1462 1468 1473 1478 1480 1485 1488 1491 1493 1495 1496 1496
1394 1394 1394 1395 1395 1396 1398 1399 1400 1400 1399 1398 1398 1398 1399 1402 1404 1406 1408 1409 1409 1411 1414 1417 1422 1427 1432 1438 1444 1450 1456 1461 1467 1473 1479 1481 1485 1489 1492 1494 1496 1497 1498
1383 1384 1385 1386 1387 1388 1390 1392 1393 1393 1393 1393 1393 1393 1394 1396 1399 1402 1404 1406 1407 1409 1412 1416 1421 1427 1433 1439 1446 1451 1456 1460 1465 1472 1478 1481 1485 1488 1492 1495 1497 1498 1499